Location: Kapasiwin
(53.5500°N, 114.4500°W)
Time: 18:29:03
(UTC+00:00)

Envisat - Visible Passes

Search period start: 27 November 2021 00:00
Search period end: 07 December 2021 00:00
Orbit: 764 x 766 km, 98.2° (Epoch: 26 November)

Date Brightness Start Highest point End Pass type
(mag) Time Alt. Az. Time Alt. Az. Time Alt. Az.
27 Nov 5.9 01:13:08 10° SW 01:16:17 16° W 01:19:28 10° NW visible
27 Nov 5.4 11:34:28 10° NE 11:38:14 20° E 11:41:59 10° SE visible
27 Nov 2.9 13:12:43 10° NNE 13:17:49 74° WNW 13:22:52 10° SSW visible
28 Nov 5.1 00:34:31 10° SSW 00:38:59 31° W 00:43:29 10° NNW visible
28 Nov 6.1 11:00:01 10° ENE 11:00:47 10° E 11:01:34 10° E visible
28 Nov 3.5 12:35:52 10° NNE 12:40:55 60° E 12:45:56 10° S visible
28 Nov 3.9 14:15:23 10° N 14:19:38 27° WNW 14:23:52 10° WSW visible
29 Nov 4.7 11:59:17 10° NNE 12:03:49 31° E 12:08:20 10° SSE visible
29 Nov 3.2 13:38:09 10° N 13:43:03 48° WNW 13:47:54 10° SW visible
30 Nov 5.8 01:00:54 10° SW 01:04:35 20° W 01:08:17 10° NW visible
30 Nov 5.7 11:23:16 10° NE 11:26:32 17° E 11:29:47 10° SE visible
30 Nov 2.9 13:01:09 10° NNE 13:06:16 88° WNW 13:11:22 10° SSW visible
30 Nov 4.3 14:41:09 10° N 14:44:38 19° NW 14:48:09 10° W visible
01 Dec 4.7 00:22:39 10° SSW 00:27:20 37° W 00:32:04 10° NNW visible
01 Dec 3.9 12:24:21 10° NNE 12:29:19 49° E 12:34:14 10° S visible
01 Dec 3.7 14:03:42 10° N 14:08:11 32° WNW 14:12:39 10° WSW visible
02 Dec 6.1 01:28:09 10° WSW 01:30:17 12° W 01:32:25 10° WNW visible
02 Dec 5.0 11:47:54 10° NE 11:52:10 26° E 11:56:23 10° SSE visible
02 Dec 3.0 13:26:32 10° N 13:31:32 58° WNW 13:36:30 10° SW visible
03 Dec 5.5 00:48:49 10° SW 00:52:54 24° W 00:56:59 10° NW visible
03 Dec 5.9 11:12:13 10° NE 11:14:48 14° E 11:17:22 10° ESE visible
03 Dec 3.1 12:49:35 10° NNE 12:54:42 77° ESE 12:59:47 10° S visible
03 Dec 4.1 14:29:22 10° N 14:33:14 22° NW 14:37:05 10° WSW visible
04 Dec 4.3 00:10:51 10° S 00:15:43 45° W 00:20:36 10° NNW visible
04 Dec 4.2 12:12:52 10° NNE 12:17:41 40° E 12:22:28 10° SSE visible
04 Dec 3.4 13:52:01 10° N 13:56:43 38° WNW 14:01:22 10° SW visible
05 Dec 5.9 01:15:35 10° WSW 01:18:32 15° W 01:21:31 10° NW visible
05 Dec 5.3 11:36:34 10° NE 11:40:29 22° E 11:44:22 10° SE visible
05 Dec 2.9 13:14:56 10° NNE 13:20:00 70° WNW 13:25:03 10° SSW visible
05 Dec 4.5 14:55:16 10° NNW 14:58:12 16° NW 15:01:07 10° W visible
06 Dec 5.2 00:36:50 10° SSW 00:41:13 29° W 00:45:38 10° NNW visible
06 Dec 6.1 11:01:37 10° ENE 11:03:03 11° E 11:04:29 10° E visible
06 Dec 3.4 12:38:02 10° NNE 12:43:07 64° ESE 12:48:10 10° S visible
06 Dec 3.9 14:17:38 10° N 14:21:48 26° WNW 14:25:57 10° WSW visible
